Погода в Патровской

Россия / Архангельская область     61°16′06″N   38°34′32″E
темп.,
°C
ветер,
м/с
пор.,
м/с
влажн.,
%
обл.,
%
осадки,
мм/ч
давл.,
гПа
погр.,
м
20 апреля, вт
вт2000:00−1юв23810 0.0 103242
03:00−2юв23840 0.0 103252
06:00−1юв26845 0.0 1031129
09:00+5юв36590 0.0 1030677
12:00+8юв46420 0.0 10291312
15:00+9юв46385 0.0 10271498
18:00+8юв37485 0.0 1025412
21:00+2вюв286760 0.0 1024121
21 апреля, ср
ср2100:00+1вюв31075100 0.0 1023200
03:000вюв398267 0.0 1021205
06:000в31081100 0.0 1018308
09:00+4в41161100 0.0 1014626
12:00+1в51294100 1.2 1011814
15:00+4вюв51088100 1.6 1008899
18:00+1вюв41297100 0.9 1006762
21:00+1вюв41198100 2.2 1004668
22 апреля, чт
чт2200:00+1вюв31198100 2.8 1002647
03:00+1ююв4998100 3.4 1002684
06:00+1ююз4898100 0.9 1003581
09:00+1юз4997100 1.4 1006572
12:00+2юз3896100 0.3 1008627
15:00+4юз4679100 0.4 1010859
18:00+5ююз37838 0.1 1012654
21:00+1ю399466 0.1 1013187
23 апреля, пт
пт2300:00+3юв2696100 0.0 1013153
03:00+4ююв3896100 0.1 1013248
06:00+3ююв39955 0.0 1013222
09:00+8ююв498260 0.0 1014466
12:00+11ююв596928 0.0 10131075
15:00+13юв5106994 0.1 10121208
18:00+11юв5117670 0.1 1012875
21:00+9юв51392100 0.9 1012570
24 апреля, сб
сб2400:00+8юв4119799 9.8 1012625
03:00+7юв41298100 10.1 1011435
06:00+6юв399886 0.1 1011337
09:00+9юв498511 0.2 1010548
12:00+14юв6126729 0.4 10091642
15:00+13юв6126795 1.6 10081457
18:00+11юв51276100 2.9 1008786
21:00+9вюв31095100 6.3 1008529